FICHTELBE Weather Reports


Display with metric or nautical units.
time (UTC)temp
F
wind
direction
speed
MPH
gust
MPH
rain 1hr
in
rain 24hr
in
rain mn
in
humidity
%
barometer
mb
20260905011940 46 290 25.0 33.0 0.00 0.00 0.00 99
20260905001640 48 300 35.0 44.0 0.00 0.00 0.00 93
20260904231640 48 300 36.0 49.0 0.00 0.00 0.00 99
20260904222040 52 310 17.0 25.0 0.00 0.00 0.00 99
20260904211641 61 270 35.0 45.0 0.00 0.00 0.00 82
20260904201640 61 270 32.0 44.0 0.00 0.00 0.00 82
20260904191939 63 270 31.0 39.0 0.00 0.00 0.00 77
20260904181640 63 260 31.0 40.0 0.00 0.00 0.00 77
20260904171640 64 260 31.0 45.0 0.00 0.00 0.00 72
20260904161940 64 260 26.0 37.0 0.00 0.00 0.00 77
20260904151641 68 260 35.0 52.0 0.00 0.00 0.00 68
20260904141639 64 250 32.0 43.0 0.00 0.00 0.00 77
20260904131840 63 250 32.0 48.0 0.00 0.00 0.00 82
20260904121639 59 250 25.0 35.0 0.00 0.00 0.00 93
20260904111640 57 260 28.0 38.0 0.00 0.00 0.00 99
20260904102041 57 260 30.0 46.0 0.00 0.00 0.00 99
20260904091639 55 270 33.0 44.0 0.00 0.00 0.00 99
20260904081639 55 260 30.0 47.0 0.00 0.00 0.00 99
20260904071841 55 260 33.0 46.0 0.00 0.00 0.00 99
20260904061639 55 260 30.0 43.0 0.00 0.00 0.00 93
20260904051640 54 270 28.0 36.0 0.00 0.00 0.00 99
20260904042042 54 270 31.0 43.0 0.00 0.00 0.00 99
20260904031640 54 270 26.0 36.0 0.00 0.00 0.00 99
20260904021641 54 280 28.0 38.0 0.00 0.00 0.00 99